User: anonymous   Login
Location: Theydon Bois
(51.6750°N, 0.1050°E)
Time: 14:17:45
(UTC+00:00)
Language:

USA 267 - Orbit

View from above orbital plane
View from above orbital plane
View from above satellite
View from above satellite

Ground track
Ground track

The orbit data is extracted from the following two-line orbital elements,

1 41334U 16010A   17342.21226662 0.00000000  00000-0  00000-0 0    00
2 41334 123.0024 265.4733 0007574 107.5698 252.4301 13.41406725    08
Epoch (UTC): 08 December 2017 05:05:39
Eccentricity: 0.0007574
inclination: 123.0024°
perigee height: 1098 km
apogee height: 1110 km
right ascension of ascending node: 265.4733°
argument of perigee: 107.5698°
revolutions per day: 13.41406725
mean anomaly at epoch: 252.4301°
orbit number at epoch: 0

The dashed part of the orbit path shows where the satellite is in the earth's shadow,  

DLR